Weather History for Nadi, Fiji

Change the Weather History Date:

Wednesday, November 7, 2012

  Actual Average Record
Temperature  
Mean Temperature 75 °F -  
Max Temperature 81 °F 84 °F 93 °F (2008)
Min Temperature 69 °F 70 °F 69 °F (1999)
Cooling Degree Days 10    
Growing Degree Days 25 (Base 50)    
Moisture  
Dew Point 70 °F    
Average Humidity 87    
Maximum Humidity 100    
Minimum Humidity 62    
Precipitation  
Precipitation 0.87 in 0.19 in - ()
Sea Level Pressure  
Sea Level Pressure 29.69 in    
Wind  
Wind Speed 5 mph ()    
Max Wind Speed 21 mph    
Max Gust Speed -    
Visibility 12.2 miles    
Events Rain    
Averages and records for this station are not official NWS values.
T = Trace of Precipitation, MM = Missing Value Source: Averaged Metar Reports

Daily Weather History Graph

Daily Weather History Graph

Search for Another Location

Airport:

Trip Planner

Search our weather history database for the weather conditions in past years. The results will help you decide how hot, cold, wet, or windy it might be!

Date:

Astronomy

Nov. 07, 2012 Rise Set
Actual Time 6:28 AM FJST 7:19 PM FJST
Civil Twilight 6:05 AM FJST 7:42 PM FJST
Nautical Twilight 5:39 AM FJST 8:09 PM FJST
Astronomical Twilight 5:11 AM FJST 8:36 PM FJST
Moon 1:01 AM FJST (11/7) 12:50 PM FJST (11/7)
Length of Visible Light 13h 36m
Length of Day
12h 50m
Waning Gibbous, 51% of the Moon is Illuminated
Nov 7
Waning Gibbous
Nov 7
Last Quarter
Nov 14
New
Nov 21
First Quarter
Nov 29
Full

Hourly Weather History & Observations

Time (FJST) Temp. Heat Index Dew Point Humidity Pressure Visibility Wind Dir Wind Speed Gust Speed Precip Events Conditions
12:00 AM 71.6 °F - 69.8 °F 94% 29.74 in 12.4 mi ESE 5.8 mph - N/A   Scattered Clouds
1:00 AM 72 °F - 70 °F 92% 29.74 in 12 mi Calm Calm - -   Partly Cloudy
1:00 AM 71.6 °F - 69.8 °F 94% 29.71 in 12.4 mi Calm Calm - N/A   Mostly Cloudy
2:00 AM 71.6 °F - 69.8 °F 94% 29.71 in 18.6 mi Calm Calm - N/A   Mostly Cloudy
3:00 AM 71.6 °F - 69.8 °F 94% 29.68 in 18.6 mi ESE 5.8 mph - N/A Rain Light Rain
4:00 AM 71 °F - 70 °F 95% 29.68 in 12 mi ESE 4.6 mph - - Rain Light Rain
4:00 AM 71.6 °F - 69.8 °F 94% 29.65 in 21.8 mi ESE 4.6 mph - N/A   Mostly Cloudy
5:00 AM 71.6 °F - 69.8 °F 94% 29.68 in 18.6 mi Calm Calm - N/A Rain Light Rain
6:00 AM 71.6 °F - 69.8 °F 94% 29.68 in 18.6 mi Calm Calm - N/A   Mostly Cloudy
7:00 AM 71 °F - 70 °F 95% 29.70 in 31 mi East 6.9 mph - - Rain Light Rain
7:00 AM 71.6 °F - 69.8 °F 94% 29.68 in 31.1 mi East 6.9 mph - N/A Rain Light Rain
8:00 AM 73.4 °F - 69.8 °F 88% 29.71 in 18.6 mi SSE 4.6 mph - N/A   Mostly Cloudy
9:00 AM 73.4 °F - 71.6 °F 94% 29.71 in 12.4 mi Calm Calm - N/A   Overcast
9:25 AM 69.8 °F - 68.0 °F 94% 29.80 in 0.6 mi WSW 17.3 mph - N/A Rain Rain
10:00 AM 70 °F - 69 °F 97% 29.76 in 2 mi WNW 3.5 mph - - Rain Light Rain
10:00 AM 69.8 °F - 69.8 °F 100% 29.74 in 5.0 mi WNW 3.5 mph - N/A Rain Rain
11:00 AM 71.6 °F - 69.8 °F 94% 29.71 in 9.3 mi Calm Calm - N/A   Overcast
12:00 PM 73.4 °F - 71.6 °F 94% 29.68 in 12.4 mi Calm Calm - N/A   Overcast
1:00 PM 78 °F - 74 °F 85% 29.68 in 12 mi WNW 8.1 mph - -   Partly Cloudy
1:00 PM 78.8 °F - 75.2 °F 89% 29.68 in 28.0 mi WNW 8.1 mph - N/A   Mostly Cloudy
2:00 PM 80.6 °F 86.2 °F 75.2 °F 84% 29.65 in 31.1 mi NW 13.8 mph - N/A   Scattered Clouds
3:00 PM 80.6 °F 85.4 °F 73.4 °F 79% 29.65 in 31.1 mi NW 17.3 mph - N/A   Scattered Clouds
4:00 PM 81 °F - 74 °F 73% 29.63 in 31 mi WNW 16.1 mph - -   Partly Cloudy
4:00 PM 80.6 °F 85.4 °F 73.4 °F 79% 29.62 in 31.1 mi WNW 16.1 mph - N/A   Mostly Cloudy
5:00 PM 80.6 °F 84.6 °F 71.6 °F 74% 29.62 in 31.1 mi West 20.7 mph - N/A   Mostly Cloudy
6:00 PM 80.6 °F 83.9 °F 69.8 °F 70% 29.65 in 31.1 mi West 18.4 mph - N/A   Mostly Cloudy
7:00 PM 78 °F - 67 °F 62% 29.69 in 31 mi WSW 15.0 mph - -   Partly Cloudy
7:00 PM 78.8 °F - 68.0 °F 69% 29.68 in 31.1 mi WSW 15.0 mph - N/A   Scattered Clouds
8:00 PM 77.0 °F - 69.8 °F 78% 29.68 in 28.0 mi SW 6.9 mph - N/A   Scattered Clouds
9:00 PM 75.2 °F - 68.0 °F 78% 29.71 in 28.0 mi Calm Calm - N/A   Scattered Clouds
10:00 PM 73 °F - 68 °F 80% 29.74 in 12 mi Calm Calm - - Rain Light Rain Showers
10:00 PM 73.4 °F - 68.0 °F 83% 29.74 in 24.9 mi Calm Calm - N/A Rain Light Rain Showers
11:00 PM 71.6 °F - 68.0 °F 88% 29.74 in 24.9 mi Calm Calm - N/A   Partly Cloudy